Regional Weather Roundup
Issued by NWS State College, PA

Home | Current Version | Previous Version | Graphics & Text | Print | Product List | Glossary Off
Versions: 1 2 3 4 5 6 7 8 9 10 11 12 13 14 15 16 17 18 19 20 21 22 23 24 25 26 27 28 29 30 31 32 33 34 35 36 37 38 39 40 41 42 43 44 45 46 47 48 49 50

000
ASUS41 KCTP 301203
RWRCTP

REGIONAL WEATHER ROUNDUP
NATIONAL WEATHER SERVICE STATE COLLEGE PA
800 AM EDT SUN APR 30 2017

Note: "fair" indicates few or no clouds below 12,000 feet with no
significant weather and/or obstructions to visibility.

* = STATION THAT DOES NOT REPORT PRECIPITATION /E.G. RAIN...SNOW...ETC/
    THUNDER OR FOG.

PAZ002>004-007>009-013>016-020>023-029>032-301300-
WESTERN PENNSYLVANIA

CITY           SKY/WX    TMP DP  RH WIND       PRES   REMARKS
ERIE           MOSUNNY   46  39  76 NE15      30.09S
MEADVILLE      MOSUNNY   54  52  93 E5        30.06S
FRANKLIN*      PTSUNNY   57  52  82 SE7       30.09R
NEW CASTLE     CLOUDY    57  56  96 CALM      30.06R
BEAVER COUNTY  NOT AVBL
BUTLER*        MOSUNNY   61  57  88 E6        30.07R
PITTSBURGH INT CLOUDY    60  59  96 SE3       30.05R
PITTSBURGH     PTSUNNY   62  57  83 S3        30.05R
INDIANA*       PTSUNNY   64  59  82 SE8       30.11R
LATROBE        PTSUNNY   72  63  73 S9        30.07R
WASHINGTON CO* CLOUDY    61  57  88 CALM      30.08R
$$

PAZ004>006-010>012-017>019-024>028-033>037-041-042-045-046-049>053-301300-
CENTRAL PENNSYLVANIA

CITY           SKY/WX    TMP DP  RH WIND       PRES   REMARKS
BRADFORD       CLOUDY    50  45  83 SE12      30.11F
DUBOIS         PTSUNNY   54  50  86 E12       30.10R
CLEARFIELD     CLOUDY    54  49  83 NE8       30.14S
JOHNSTOWN      PTSUNNY   60  59  96 SW3       30.13R
ALTOONA        CLOUDY    61  56  83 E7        30.15S
STATE COLLEGE  NOT AVBL
WILLIAMSPORT   CLOUDY    55  40  56 E5        30.18R
SELINSGROVE    CLOUDY    56  43  61 E5        30.18F
FT INDIANTOWN  CLOUDY    60  47  61 E9        30.20R
CAPITAL CITY   CLOUDY    63  52  67 E7        30.18R
HARRISBURG     CLOUDY    62  51  67 NE8       30.18R
YORK           CLOUDY    64  58  80 NE7       30.17R
$$

PAZ038>040-043-044-047-048-054-055-060>062-067>071-301300-
EASTERN PENNSYLVANIA

CITY           SKY/WX    TMP DP  RH WIND       PRES   REMARKS
SCRANTON       CLOUDY    54  39  57 NE6       30.19R
MOUNT POCONO   PTSUNNY   50  37  61 E10       30.21R
ALLENTOWN      CLOUDY    59  43  55 NE7       30.21R
QUAKERTOWN*    CLOUDY    59  45  58 NE5       30.21R
READING        CLOUDY    62  44  51 NE8       30.19R
LANCASTER      CLOUDY    62  55  77 E9        30.18R
COATESVILLE    CLOUDY    63  52  67 E14G22    30.19R
POTTSTOWN      CLOUDY    60  45  57 NE7       30.21R
BLUE BELL      CLOUDY    61  45  55 NE6       30.21R
DOYLESTOWN     CLOUDY    60  46  59 VRB5      30.20R
WILLOW GROVE   NOT AVBL
NORTH PHILA    CLOUDY    64  47  53 NE10      30.21R
PHILADELPHIA   CLOUDY    65  50  58 NE10      30.18R
$$




USA.gov is the U.S. government's official web portal to all federal, state and local government web resources and services.